sim
Sign-in with your pilot id or email,
or register
Callsign
Passwort

Schedule Details

Flight Number: RYR2171 (1)
Departure: Bratislava M. R. Stefanik Airport (LZIB) at 09:20
Arrival: Thessaloniki International Airport (LGTS) at 11:10
Route: Ryanair Passenger Schedule. Enter filed route here before submitting Pirep.

Weather Information
Getting current METAR information for LZIB 192230Z 02006KT CAVOK 12/M00 Q1029
Getting current METAR information for LGTS 192220Z 14004KT 9999 FEW020 13/09 Q1023 NOSIG

Schedule Frequency

Route Map